Weather History for KFAY - September, 2013

Change the Weather History Date:

Sunday, September 22, 2013

  Actual Average Record
Temperature  
Mean Temperature 72 °F 72 °F  
Max Temperature 80 °F 82 °F 98 °F (1931)
Min Temperature 63 °F 62 °F 43 °F (1918)
Degree Days  
Heating Degree Days 0 0  
Month to date heating degree days 0 0  
Since 1 July heating degree days 0 0  
Cooling Degree Days 7 7  
Month to date cooling degree days 250 221  
Year to date cooling degree days 1829 1861  
Growing Degree Days 23 (Base 50)    
Moisture  
Dew Point 65 °F    
Average Humidity 72    
Maximum Humidity 93    
Minimum Humidity 51    
Precipitation  
Precipitation 0.58 in 0.15 in 1.96 in (1983)
Month to date precipitation 1.03 3.27  
Year to date precipitation 35.59 34.70  
Sea Level Pressure  
Sea Level Pressure 29.72 in    
Wind  
Wind Speed 10 mph (NNE)    
Max Wind Speed 22 mph    
Max Gust Speed 26 mph    
Visibility 8 miles    
Events Rain    
T = Trace of Precipitation, MM = Missing Value Source: NWS Daily Summary

Daily Weather History Graph

Daily Weather History Graph

Search for Another Location

Airport or City:

Trip Planner

Search our weather history database for the weather conditions in past years. The results will help you decide how hot, cold, wet, or windy it might be!

Date:

Astronomy

Sep. 22, 2013 Rise Set
Actual Time 7:03 AM EDT 7:11 PM EDT
Civil Twilight 6:38 AM EDT 7:37 PM EDT
Nautical Twilight 6:08 AM EDT 8:06 PM EDT
Astronomical Twilight 5:39 AM EDT 8:36 PM EDT
Moon 9:10 PM EDT (9/22) 10:13 AM EDT (9/22)
Length of Visible Light 12h 58m
Length of Day
12h 08m
Waning Gibbous, 89% of the Moon is Illuminated
Sep 22
Waning Gibbous
Sep 26
Last Quarter
Oct 4
New
Oct 11
First Quarter
Oct 18
Full

Hourly Weather History & Observations

Time (EDT) Temp. Heat Index Dew Point Humidity Pressure Visibility Wind Dir Wind Speed Gust Speed Precip Events Conditions
12:53 AM 72.0 °F - 70.0 °F 93% 29.70 in 7.0 mi East 3.5 mph - 0.04 in Rain Light Rain
1:53 AM 72.0 °F - 70.0 °F 93% 29.68 in 3.0 mi SE 9.2 mph - 0.08 in Rain Rain
2:13 AM 71.6 °F - 69.8 °F 94% 29.68 in 2.5 mi SE 6.9 mph - 0.11 in Rain Rain
2:18 AM 71.6 °F - 71.6 °F 100% 29.68 in 3.0 mi SE 10.4 mph - 0.13 in Rain Rain
2:53 AM 72.0 °F - 70.0 °F 93% 29.65 in 8.0 mi South 8.1 mph - 0.14 in Rain Light Rain
3:21 AM 71.6 °F - 69.8 °F 94% 29.67 in 7.0 mi South 3.5 mph - 0.02 in Rain Light Rain
3:28 AM 71.6 °F - 69.8 °F 94% 29.67 in 9.0 mi Calm Calm - 0.02 in Rain Light Rain
3:53 AM 71.1 °F - 69.1 °F 93% 29.64 in 10.0 mi SE 4.6 mph - 0.09 in Rain Light Rain
4:24 AM 71.6 °F - 69.8 °F 94% 29.64 in 1.8 mi SE 5.8 mph - 0.08 in Rain Rain
4:33 AM 71.6 °F - 69.8 °F 94% 29.64 in 3.0 mi SE 3.5 mph - 0.10 in Rain Light Rain
4:46 AM 71.6 °F - 69.8 °F 94% 29.64 in 10.0 mi SE 3.5 mph - 0.10 in   Overcast
4:53 AM 71.1 °F - 70.0 °F 96% 29.62 in 10.0 mi East 3.5 mph - 0.10 in   Overcast
5:01 AM 69.8 °F - 69.8 °F 100% 29.65 in 2.5 mi NNW 11.5 mph 18.4 mph 0.11 in Rain Light Rain
5:09 AM 68.0 °F - 66.2 °F 94% 29.66 in 1.8 mi NNW 12.7 mph - 0.14 in Rain Light Rain
5:11 AM 68.0 °F - 66.2 °F 94% 29.66 in 2.5 mi NNW 15.0 mph - 0.15 in Rain Light Rain
5:13 AM 68.0 °F - 66.2 °F 94% 29.66 in 3.0 mi NNW 11.5 mph - 0.16 in Rain Rain
5:45 AM 66.2 °F - 64.4 °F 94% 29.66 in 10.0 mi North 13.8 mph - 0.16 in   Overcast
5:53 AM 66.9 °F - 64.9 °F 93% 29.65 in 10.0 mi NNE 13.8 mph - 0.16 in   Overcast
6:53 AM 66.0 °F - 64.0 °F 93% 29.66 in 10.0 mi North 17.3 mph 23.0 mph N/A   Overcast
7:53 AM 66.0 °F - 63.0 °F 90% 29.69 in 8.0 mi North 15.0 mph - 0.00 in Rain Light Rain
8:53 AM 66.0 °F - 64.0 °F 93% 29.71 in 9.0 mi North 13.8 mph - 0.01 in   Overcast
9:53 AM 66.9 °F - 64.9 °F 93% 29.74 in 4.0 mi North 12.7 mph - N/A   Overcast
10:10 AM 68.0 °F - 64.4 °F 88% 29.76 in 10.0 mi North 12.7 mph - N/A   Overcast
10:21 AM 68.0 °F - 64.4 °F 88% 29.76 in 10.0 mi North 15.0 mph - N/A   Overcast
10:53 AM 69.1 °F - 64.0 °F 84% 29.75 in 10.0 mi North 16.1 mph - N/A   Overcast
11:42 AM 71.6 °F - 62.6 °F 73% 29.77 in 10.0 mi NNE 17.3 mph 26.5 mph N/A   Overcast
11:53 AM 72.0 °F - 63.0 °F 73% 29.75 in 10.0 mi NNE 16.1 mph 24.2 mph N/A   Overcast
12:53 PM 73.9 °F - 61.0 °F 64% 29.77 in 10.0 mi North 16.1 mph 24.2 mph N/A   Overcast
1:53 PM 75.9 °F - 61.0 °F 60% 29.76 in 10.0 mi North 17.3 mph 23.0 mph N/A   Overcast
2:01 PM 75.2 °F - 60.8 °F 61% 29.78 in 10.0 mi NNE 15.0 mph 23.0 mph N/A   Overcast
2:53 PM 80.1 °F 81.1 °F 61.0 °F 52% 29.75 in 10.0 mi North 12.7 mph 20.7 mph N/A   Partly Cloudy
3:53 PM 77.0 °F - 60.1 °F 56% 29.75 in 10.0 mi NNE 11.5 mph - N/A   Mostly Cloudy
4:53 PM 75.9 °F - 60.1 °F 58% 29.76 in 10.0 mi North 10.4 mph - N/A   Overcast
5:53 PM 77.0 °F - 61.0 °F 58% 29.77 in 10.0 mi NNE 8.1 mph - N/A   Overcast
6:53 PM 73.0 °F - 62.1 °F 68% 29.78 in 10.0 mi Calm Calm - N/A   Mostly Cloudy
7:53 PM 70.0 °F - 63.0 °F 78% 29.80 in 10.0 mi North 3.5 mph - N/A   Overcast
8:53 PM 69.1 °F - 62.1 °F 78% 29.83 in 10.0 mi North 4.6 mph - N/A   Mostly Cloudy
9:53 PM 66.9 °F - 61.0 °F 81% 29.84 in 10.0 mi NNW 3.5 mph - N/A   Partly Cloudy
10:53 PM 66.9 °F - 59.0 °F 76% 29.86 in 10.0 mi North 5.8 mph - N/A   Mostly Cloudy
11:53 PM 64.9 °F - 57.9 °F 78% 29.88 in 10.0 mi North 4.6 mph - N/A   Mostly Cloudy